CZ-6A DEB, 56260

Orbit data source: Space-Track

CZ-6A DEB, 56260 is space debris in SSO originally from a launch on Fri, 11 Nov 2022 UTC launched from the Taiyaun Space Center, China (TSC). Debris objects in space refer to the collection of defunct objects orbiting the Earth. Examples of debris include non-operational satellites, rocket bodies, and fragments generated from explosions, collisions, or faulty payload assembly.

Loading next visibility...
Identifier
56260, 2022-151ACC
Orbit
SSO
Country
Flag of CNCN / PRC
Related business
Manufacturer
SAST
Mission
Spacecraft
Bus & Motor
Unknown
Mass
Unknown
Launch date (UTC)
2022-11-11 (4 years ago)
Launch vehicle
Unknown
Launch site
Taiyaun Space Center, China (TSC)
Object type
Payload
Rocket body
Debris
Shape & HBR
Unknown shape, 0.1 m
Radar Cross Section
Medium (>0.1 m² and <1 m²)

Expand to show TLE details & history
Last TLE update: 2 days ago

TLE from 2 days ago
0 CZ-6A DEB
1 56260U 22151ACC 26170.99592605  .00000465  00000-0  21549-3 0  9990
2 56260  98.7436 193.5543 0043082 340.1833  19.7670 14.25003742168976
Epoch: 2026-06-19T23:54Z
TLE epoch observation values (Epoch: 2026-06-19T23:54:08.010Z)
Latitude
-0.00012°
Longitude
-73.19595°
Altitude
782.273 km
Speed
7.478 km/s
True Right ascension
12h 54m 13s
True Declination
0° 00' 00"
Sunlit
Object was in daylight at epoch
Visualization orbit readout
Latitude
Unknown
Longitude
Unknown
Altitude
Unknown
Speed
Unknown
Apparent Right ascension
Unknown
Apparent Declination
Unknown
Sunlit
N/A
Visualization observer readout
Local Sidereal Time
21:52:28
Azimuth
Unknown
Elevation
Unknown
Doppler factor
Unknown
Orbital elements
Apogee altitude
836.583 km
Perigee altitude
774.684 km
Semi-major axis
7,183.771 km
Eccentricity
0.00431
Inclination
98.7436°
RAAN
193.5543°
Arg. of periapsis
340.1833°
True anomaly
19.93481°
Mean anomaly
19.767°
Eccentric anomaly
19.85082°
Mean motion
3.56463 °/min
Orbital period
100.99 mins
BSTAR
0.00021549
Loading maneuver chart data...
Computing Atmospheric mass density...
Loading historical data...
Loading historical data...
Loading historical data...
Loading historical data...
Loading historical data...
Loading historical data...
Loading historical data...

Documentation

Showing up to 5 results
|